Location: �perlecques
(50.8057°N, 2.1521°E)
Time: 19:13:42
(UTC+00:00)

Tiros 1 - Pass Details

Date: 07 August 2021
Orbit: 630 x 663 km, 48.4° (Epoch: 28 September)

Event Time Altitude Azimuth Distance (km) Brightness Sun altitude
Rises 17:13:18 0° 250° (WSW) 2,989 11.8 19.4°
Reaches altitude 10° 17:15:41 10° 246° (WSW) 2,075 11.1 19.0°
Maximum altitude 17:20:23 59° 168° (SSE) 764 7.7 18.3°
Drops below altitude 10° 17:25:04 10° 90° (E) 2,063 9.2 17.5°
Sets 17:27:25 0° 86° (E) 2,969 9.9 17.1°
